FW5941 Weather Reports


time (UTC)temp
C
wind
direction
speed
KPH
gust
KPH
rain 1hr
cm
rain 24hr
cm
rain mn
cm
humidity
%
barometer
mb
20260506005100 16 158 3.2 8.0 0.00 0.00 0.00 48 1009.9
20260506004559 16 137 3.2 8.0 0.00 0.00 0.00 49 1009.7
20260506004058 16 135 3.2 8.0 0.00 0.00 0.00 48 1009.9
20260506003600 16 165 3.2 9.7 0.00 0.00 0.00 48 1009.9
20260506003058 16 153 3.2 9.7 0.00 0.00 0.00 48 1009.9
20260506002554 16 138 3.2 9.7 0.00 0.00 0.00 48 1009.9
20260506001543 16 123 1.6 11.3 0.00 0.00 0.00 48 1009.9
20260506001043 16 132 3.2 11.3 0.00 0.00 0.00 48 1009.9
20260506000538 16 198 1.6 8.0 0.00 0.00 0.00 49 1010.0
20260505235538 16 163 1.6 11.3 0.00 0.00 0.00 50 1010.0
20260505235036 15 175 1.6 6.4 0.00 0.00 0.00 52 1010.1
20260505234533 15 149 3.2 8.0 0.00 0.00 0.00 52 1010.0
20260505234033 15 161 3.2 9.7 0.00 0.00 0.00 52 1010.0
20260505233530 15 182 3.2 9.7 0.00 0.00 0.00 55 1010.1
20260505233028 15 194 1.6 8.0 0.00 0.00 0.00 54 1010.1
20260505232530 15 164 1.6 8.0 0.00 0.00 0.00 55 1010.2
20260505231531 14 202 1.6 9.7 0.00 0.00 0.00 56 1010.4
20260505231029 14 157 0.0 3.2 0.00 0.00 0.00 57 1010.4
20260505230527 14 139 1.6 11.3 0.00 0.00 0.00 60 1010.4
20260505230025 14 137 3.2 11.3 0.00 0.00 0.00 56 1010.4
20260505225522 14 179 1.6 4.8 0.00 0.00 0.00 59 1010.5
20260505225021 14 179 1.6 6.4 0.00 0.00 0.00 61 1010.7
20260505224518 14 177 1.6 6.4 0.00 0.00 0.00 62 1010.7
20260505224020 13 177 0.0 8.0 0.00 0.00 0.00 62 1010.7
20260505223522 13 174 0.0 8.0 0.00 0.00 0.00 61 1010.7
20260505223019 13 157 0.0 8.0 0.00 0.00 0.00 60 1010.8
20260505222014 13 157 1.6 6.4 0.00 0.00 0.00 58 1011.0
20260505221514 13 150 1.6 8.0 0.00 0.00 0.00 56 1010.9
20260505221016 13 145 1.6 11.3 0.00 0.00 0.00 55 1011.1
20260505220515 13 89 3.2 11.3 0.00 0.00 0.00 55 1011.1
20260505220012 14 136 1.6 6.4 0.00 0.00 0.00 54 1011.1
20260505215514 14 153 0.0 4.8 0.00 0.00 0.00 52 1011.2
20260505215013 14 153 0.0 8.0 0.00 0.00 0.00 51 1011.3
20260505214510 14 153 1.6 9.7 0.00 0.00 0.00 50 1011.2
20260505214011 14 149 1.6 9.7 0.00 0.00 0.00 50 1011.3
20260505213517 14 136 1.6 8.0 0.00 0.00 0.00 51 1011.2
20260505213016 14 169 3.2 11.3 0.00 0.00 0.00 52 1011.2
20260505212013 14 115 3.2 9.7 0.00 0.00 0.00 53 1011.1
20260505211513 13 105 3.2 9.7 0.00 0.00 0.00 52 1011.1
20260505210009 13 183 3.2 9.7 0.00 0.00 0.00 54 1011.1
20260505204500 13 158 3.2 11.3 0.00 0.00 0.00 53 1011.2
20260505204000 13 145 4.8 14.5 0.00 0.00 0.00 53 1011.2
20260505203500 13 146 3.2 14.5 0.00 0.00 0.00 53 1011.1
20260505202455 13 128 4.8 14.5 0.00 0.00 0.00 53 1011.2
20260505201457 13 126 4.8 12.9 0.00 0.00 0.00 53 1011.3
20260505200954 13 137 4.8 12.9 0.00 0.00 0.00 53 1011.3
20260505200453 13 217 4.8 12.9 0.00 0.00 0.00 53 1011.3
20260505195953 13 167 4.8 14.5 0.00 0.00 0.00 53 1011.3
20260505195453 13 196 4.8 17.7 0.00 0.00 0.00 54 1011.3
20260505194951 13 143 4.8 19.3 0.00 0.00 0.00 53 1011.3
20260505194447 13 107 6.4 19.3 0.00 0.00 0.00 52 1011.3
20260505193948 13 142 8.0 17.7 0.00 0.00 0.00 53 1011.2
20260505193446 13 126 8.0 16.1 0.00 0.00 0.00 53 1011.3
20260505192947 13 116 6.4 17.7 0.00 0.00 0.00 53 1011.3
20260505191948 13 167 6.4 22.5 0.00 0.00 0.00 54 1011.3
20260505190948 13 117 6.4 17.7 0.00 0.00 0.00 54 1011.2
20260505185943 13 142 8.0 19.3 0.00 0.00 0.00 53 1011.5
20260505184945 13 186 8.0 19.3 0.00 0.00 0.00 53 1011.5
20260505184444 13 97 8.0 19.3 0.00 0.00 0.00 53 1011.3
20260505183943 13 143 8.0 17.7 0.00 0.00 0.00 54 1011.2
20260505183442 13 154 8.0 19.3 0.00 0.00 0.00 54 1011.3
20260505182944 13 196 8.0 22.5 0.00 0.00 0.00 55 1011.5
20260505182443 13 153 8.0 22.5 0.00 0.00 0.00 56 1011.3
20260505181444 12 121 8.0 16.1 0.00 0.00 0.00 58 1011.2
20260505180942 12 178 8.0 19.3 0.00 0.00 0.00 58 1011.2
20260505180442 12 120 8.0 22.5 0.00 0.00 0.00 58 1011.3
20260505175442 12 169 8.0 22.5 0.00 0.00 0.00 59 1011.5
20260505174941 11 223 8.0 22.5 0.00 0.00 0.00 60 1011.5
20260505173939 11 147 6.4 20.9 0.00 0.00 0.00 60 1011.5
20260505173439 11 115 6.4 16.1 0.00 0.00 0.00 60 1011.3
20260505172942 11 160 8.0 22.5 0.00 0.00 0.00 61 1011.5
20260505171936 11 168 8.0 25.7 0.00 0.00 0.00 61 1011.5
20260505171436 11 186 9.7 22.5 0.00 0.00 0.00 61 1011.5
20260505170434 11 155 9.7 19.3 0.00 0.00 0.00 62 1011.3
20260505165933 11 142 8.0 19.3 0.00 0.00 0.00 62 1011.3
20260505165431 11 180 8.0 19.3 0.00 0.00 0.00 63 1011.2
20260505164934 11 134 8.0 17.7 0.00 0.00 0.00 63 1011.5
20260505164433 11 144 8.0 19.3 0.00 0.00 0.00 63 1011.3
20260505163929 11 196 8.0 19.3 0.00 0.00 0.00 64 1011.3
20260505163432 11 155 8.0 16.1 0.00 0.00 0.00 64 1011.3
20260505162925 11 225 8.0 27.4 0.00 0.00 0.00 64 1011.3
20260505162420 11 188 8.0 27.4 0.00 0.00 0.00 64 1011.3
20260505161919 11 136 8.0 22.5 0.00 0.00 0.00 63 1011.5
20260505161418 11 176 8.0 22.5 0.00 0.00 0.00 62 1011.5
20260505160919 11 168 8.0 17.7 0.00 0.00 0.00 60 1011.3
20260505160419 11 193 6.4 16.1 0.00 0.00 0.00 60 1011.3
20260505152909 11 100 8.0 19.3 0.00 0.00 0.00 59 1010.9
20260505152411 11 112 6.4 25.7 0.00 0.00 0.00 60 1010.8
20260505151407 11 150 9.7 27.4 0.00 0.00 0.00 60 1010.8
20260505150905 11 127 9.7 27.4 0.00 0.00 0.00 59 1010.8
20260505150408 12 159 8.0 20.9 0.00 0.00 0.00 59 1010.8
20260505140402 12 153 8.0 22.5 0.00 0.00 0.00 59 1010.4
20260505124853 13 140 4.8 16.1 0.00 0.00 0.00 66 1009.7
20260505124351 13 160 4.8 16.1 0.00 0.00 0.00 65 1009.7
20260505123850 13 178 3.2 12.9 0.00 0.00 0.00 65 1009.7
20260505123351 13 178 4.8 17.7 0.00 0.00 0.00 65 1009.5
20260505122849 13 169 4.8 17.7 0.00 0.00 0.00 65 1009.3
20260505122350 12 146 4.8 14.5 0.00 0.00 0.00 65 1009.3
20260505121351 13 148 4.8 14.5 0.00 0.00 0.00 65 1009.2
20260505120841 12 184 4.8 12.9 0.00 0.00 0.00 65 1009.3
20260505120339 13 177 4.8 12.9 0.00 0.00 0.00 66 1009.3
20260505115839 13 158 4.8 12.9 0.00 0.00 0.00 67 1009.4
20260505114839 13 192 3.2 11.3 0.00 0.00 0.00 68 1009.4
20260505114338 13 192 3.2 11.3 0.00 0.00 0.00 68 1009.4
20260505113839 13 158 1.6 8.0 0.00 0.00 0.00 67 1009.5
20260505112840 13 193 0.0 6.4 0.00 0.00 0.00 67 1009.5
20260505112339 13 193 0.0 6.4 0.00 0.00 0.00 67 1009.5
20260505111838 13 196 0.0 4.8 0.00 0.00 0.00 66 1009.5
20260505111338 13 193 0.0 4.8 0.00 0.00 0.00 66 1009.5
20260505110836 13 178 0.0 1.6 0.00 0.00 0.00 66 1009.5
20260505110335 13 178 0.0 3.2 0.00 0.00 0.00 66 1009.5
20260505101831 13 146 3.2 8.0 0.00 0.00 0.00 64 1009.5
20260505101332 13 168 1.6 8.0 0.00 0.00 0.00 64 1009.4
20260505100832 13 152 0.0 3.2 0.00 0.00 0.00 64 1009.4
20260505100331 13 148 0.0 3.2 0.00 0.00 0.00 64 1009.4
20260505095830 13 148 1.6 8.0 0.00 0.00 0.00 64 1009.4
20260505095336 13 148 1.6 8.0 0.00 0.00 0.00 64 1009.4
20260505094832 13 145 3.2 11.3 0.00 0.00 0.00 64 1009.5
20260505094328 13 140 3.2 11.3 0.00 0.00 0.00 64 1009.4
20260505093828 13 117 4.8 11.3 0.00 0.00 0.00 64 1009.3
20260505093330 13 197 4.8 11.3 0.00 0.00 0.00 64 1009.4
20260505092828 13 173 4.8 11.3 0.00 0.00 0.00 63 1009.4
20260505091825 13 155 4.8 14.5 0.00 0.00 0.00 63 1009.4
20260505091325 13 140 4.8 14.5 0.00 0.00 0.00 64 1009.3
20260505090824 13 158 3.2 8.0 0.00 0.00 0.00 64 1009.4
20260505090324 13 175 3.2 9.7 0.00 0.00 0.00 64 1009.5
20260505085824 13 140 3.2 9.7 0.00 0.00 0.00 64 1009.4
20260505085324 13 124 3.2 9.7 0.00 0.00 0.00 64 1009.5
20260505084323 13 140 3.2 9.7 0.00 0.00 0.00 64 1009.5
20260505082819 13 202 0.0 6.4 0.00 0.00 0.00 64 1009.7
20260505081313 13 173 1.6 9.7 0.00 0.00 0.00 63 1010.0
20260505080314 13 138 1.6 11.3 0.00 0.00 0.00 62 1009.9
20260505074811 13 163 6.4 16.1 0.00 0.00 0.00 61 1009.9
20260505074307 13 140 6.4 16.1 0.00 0.00 0.00 60 1009.9
20260505073806 13 196 6.4 17.7 0.00 0.00 0.00 60 1010.0
20260505072805 13 150 6.4 14.5 0.00 0.00 0.00 60 1009.9
20260505072307 13 165 6.4 22.5 0.00 0.00 0.00 59 1010.0
20260505071805 13 167 6.4 22.5 0.00 0.00 0.00 59 1009.9
20260505071304 13 148 8.0 17.7 0.00 0.00 0.00 58 1009.9
20260505070804 13 133 8.0 19.3 0.00 0.00 0.00 57 1009.9
20260505070304 13 176 8.0 19.3 0.00 0.00 0.00 56 1009.9
20260505065802 13 143 8.0 19.3 0.00 0.00 0.00 56 1009.9
20260505065304 13 204 8.0 19.3 0.00 0.00 0.00 56 1010.0
20260505064804 13 190 8.0 17.7 0.00 0.00 0.00 56 1010.0
20260505064302 13 163 9.7 27.4 0.00 0.00 0.00 57 1010.0
20260505063801 13 153 9.7 27.4 0.00 0.00 0.00 57 1010.0
20260505063300 13 140 9.7 22.5 0.00 0.00 0.00 57 1010.0
20260505062802 13 101 6.4 17.7 0.00 0.00 0.00 58 1009.9
20260505062300 13 226 6.4 17.7 0.00 0.00 0.00 58 1010.0
20260505061801 13 96 8.0 19.3 0.00 0.00 0.00 59 1010.0
20260505061258 13 136 8.0 19.3 0.00 0.00 0.00 59 1010.1
20260505060758 13 115 6.4 19.3 0.00 0.00 0.00 59 1010.2
20260505060254 13 146 8.0 19.3 0.00 0.00 0.00 59 1010.0
20260505055753 13 208 8.0 22.5 0.00 0.00 0.00 59 1010.1
20260505054753 14 130 6.4 22.5 0.00 0.00 0.00 59 1010.1
20260505054253 14 185 9.7 22.5 0.00 0.00 0.00 59 1010.1
20260505053753 14 134 9.7 22.5 0.00 0.00 0.00 59 1010.1
20260505052744 14 138 9.7 30.6 0.00 0.00 0.00 59 1010.0
20260505051744 14 178 11.3 24.1 0.00 0.00 0.00 59 1009.9
20260505050742 15 139 11.3 25.7 0.00 0.00 0.00 58 1009.7
20260505050245 15 137 11.3 25.7 0.00 0.00 0.00 56 1009.7
20260505041738 16 127 6.4 24.1 0.00 0.00 0.00 44 1008.6
20260505041239 16 200 6.4 17.7 0.00 0.00 0.00 45 1008.7
20260505040739 16 82 4.8 17.7 0.00 0.00 0.00 44 1008.6
20260505040238 17 153 4.8 12.9 0.00 0.00 0.00 43 1008.6
20260505035742 17 119 4.8 12.9 0.00 0.00 0.00 43 1008.6
20260505035239 17 182 4.8 12.9 0.00 0.00 0.00 44 1008.5
20260505034738 17 155 4.8 12.9 0.00 0.00 0.00 44 1008.4
20260505034238 17 186 3.2 11.3 0.00 0.00 0.00 45 1008.3
20260505033244 17 180 4.8 17.7 0.00 0.00 0.00 46 1008.1
20260505032240 17 175 6.4 17.7 0.00 0.00 0.00 43 1008.0
20260505031240 17 153 4.8 14.5 0.00 0.00 0.00 43 1008.0
20260505030738 18 157 4.8 17.7 0.00 0.00 0.00 42 1008.0
20260505030237 18 201 4.8 17.7 0.00 0.00 0.00 42 1007.9
20260505025735 18 159 4.8 16.1 0.00 0.00 0.00 42 1007.9
20260505025232 18 164 6.4 16.1 0.00 0.00 0.00 42 1007.8
20260505024233 18 192 4.8 14.5 0.00 0.00 0.00 42 1007.7
20260505023733 18 167 4.8 14.5 0.00 0.00 0.00 42 1007.6
20260505022732 18 175 6.4 19.3 0.00 0.00 0.00 40 1007.6
20260505021732 18 132 6.4 14.5 0.00 0.00 0.00 38 1007.5
20260505021231 19 211 4.8 14.5 0.00 0.00 0.00 38 1007.3
20260505020726 19 165 4.8 20.9 0.00 0.00 0.00 38 1007.3
20260505015729 19 194 6.4 20.9 0.00 0.00 0.00 37 1007.5
20260505015222 20 137 6.4 20.9 0.00 0.00 0.00 37 1007.5
20260505014724 20 198 6.4 25.7 0.00 0.00 0.00 37 1007.5
20260505014220 20 145 6.4 25.7 0.00 0.00 0.00 36 1007.5
20260505013221 20 155 1.6 4.8 0.00 0.00 0.00 32 1007.3
20260505012720 20 157 1.6 9.7 0.00 0.00 0.00 34 1007.3
20260505012218 21 178 1.6 9.7 0.00 0.00 0.00 33 1007.5
20260505011715 21 142 1.6 4.8 0.00 0.00 0.00 33 1007.5
20260505011214 21 142 1.6 4.8 0.00 0.00 0.00 32 1007.5
20260505010217 21 142 1.6 6.4 0.00 0.00 0.00 34 1007.6
20260505005714 21 140 3.2 8.0 0.00 0.00 0.00 34 1007.5